Back to catalog

CZ-6A DEB

AlivePO
NORAD 61402·DEBRIS·🇨🇳 China

Launched Aug 6, 2024 from Taiyuan Satellite Launch Center

Loading…

Next Passes (next 24 hours)

TLE

FreshSource: Space-Track

Epoch: Sep 13, 2026, 04:45 UTC

1 61402U 24140XT  26256.19800812  .00017938  00000-0  47639-3 0  9994
2 61402  89.7035 324.0041 0159486  39.0872 322.1771 15.26171238110598

Track CZ-6A DEB in real time with AllMySat

Download on the App Store